Voltar ao catálogo

BLUEWALKER 3

AtivoComunicaçõesVLEO
NORAD 53807·PAYLOAD·🇺🇸 United States

Lançado Sep 11, 2022 de Cape Canaveral Space Force Station

Loading…

Próximas Passagens (próximas 24 horas)

TLE

AtualizadoSource: CelesTrak SupGP

Época: Sep 14, 2026, 05:06 UTC

1 53807C 22111AL  26257.21259258  .00000279  00000+0  70382-5 0  2575
2 53807  53.2294 335.7030 0007245  92.4546 189.4616 15.39253174    15

Acompanhe BLUEWALKER 3 em tempo real com AllMySat

Download on the App Store